Weather History for Missoula, MT

Change the Weather History Date:

Friday, January 31, 2014

  Actual Average Record
Temperature  
Mean Temperature 21 °F 28 °F  
Max Temperature 25 °F 35 °F 56 °F (1953)
Min Temperature 16 °F 20 °F -24 °F (1950)
Degree Days  
Heating Degree Days 44 37  
Month to date heating degree days 1102 1217  
Since 1 July heating degree days 4259 4389  
Cooling Degree Days 0 0  
Month to date cooling degree days 0 0  
Year to date cooling degree days 0 0  
Moisture  
Dew Point 16 °F    
Average Humidity 80    
Maximum Humidity 92    
Minimum Humidity 68    
Precipitation  
Precipitation 0.05 in 0.03 in 1.10 in (1907)
Month to date precipitation 0.87 0.85  
Year to date precipitation 0.87 0.85  
Snow  
Snow 1.10 in - - ()
Month to date snowfall 6.5  
Year to date snowfall 6.5  
Since 1 July snowfall 20.4  
Snow Depth 6.00 in    
Sea Level Pressure  
Sea Level Pressure 29.95 in    
Wind  
Wind Speed 4 mph (East)    
Max Wind Speed 20 mph    
Max Gust Speed 25 mph    
Visibility 6 miles    
Events Snow    
T = Trace of Precipitation, MM = Missing Value Source: NWS Daily Summary

Daily Weather History Graph

Daily Weather History Graph

Search for Another Location

Airport:

Trip Planner

Search our weather history database for the weather conditions in past years. The results will help you decide how hot, cold, wet, or windy it might be!

Date:

Astronomy

Jan. 31, 2014 Rise Set
Actual Time 8:02 AM MST 5:38 PM MST
Civil Twilight 7:29 AM MST 6:10 PM MST
Nautical Twilight 6:53 AM MST 6:47 PM MST
Astronomical Twilight 6:17 AM MST 7:22 PM MST
Moon 8:07 AM MST (1/31) 7:15 PM MST (1/31)
Length of Visible Light 10h 41m
Length of Day
9h 35m
New Moon, 1% of the Moon is Illuminated
Jan 31
New Moon
Feb 6
First Quarter
Feb 14
Full
Feb 22
Last Quarter
Mar 1
New

Hourly Weather History & Observations

Time (MST) Temp. Windchill Dew Point Humidity Pressure Visibility Wind Dir Wind Speed Gust Speed Precip Events Conditions
12:53 AM 19.0 °F 10.0 °F 14.0 °F 81% 29.99 in 5.0 mi East 6.9 mph - 0.01 in Snow Light Snow
1:53 AM 19.0 °F 10.0 °F 14.0 °F 81% 29.98 in 4.0 mi East 6.9 mph - 0.00 in Snow Light Snow
2:03 AM 19.0 °F 11.1 °F 15.1 °F 85% 29.85 in 2.5 mi East 5.8 mph - 0.00 in Snow Light Snow
2:25 AM 19.0 °F 12.3 °F 15.1 °F 85% 29.85 in 4.0 mi East 4.6 mph - 0.00 in Snow Light Snow
2:37 AM 19.0 °F 12.3 °F 15.1 °F 85% 29.85 in 2.0 mi ESE 4.6 mph - 0.00 in Snow Light Snow
2:53 AM 19.0 °F 12.3 °F 15.1 °F 85% 29.98 in 4.0 mi ESE 4.6 mph - 0.00 in Snow Light Snow
3:35 AM 18.0 °F - 16.0 °F 92% 29.85 in 2.0 mi Calm Calm - 0.01 in Snow Light Snow
3:38 AM 18.0 °F - 16.0 °F 92% 29.85 in 1.2 mi Calm Calm - 0.01 in Snow Light Snow
3:41 AM 18.0 °F - 16.0 °F 92% 29.86 in 0.8 mi Calm Calm - 0.01 in Snow Light Snow
3:53 AM 19.0 °F 13.9 °F 16.0 °F 88% 29.99 in 1.0 mi East 3.5 mph - 0.02 in Snow Light Snow
3:56 AM 19.0 °F - 16.0 °F 88% 29.86 in 1.5 mi Calm Calm - 0.00 in Snow Light Snow
4:02 AM 19.0 °F 13.9 °F 16.0 °F 88% 29.86 in 3.0 mi ESE 3.5 mph - 0.00 in Snow Light Snow
4:12 AM 18.0 °F 12.7 °F 16.0 °F 92% 29.86 in 1.8 mi ESE 3.5 mph - 0.00 in Snow Light Snow
4:16 AM 18.0 °F - 16.0 °F 92% 29.86 in 1.0 mi Calm Calm - 0.00 in Snow Light Snow
4:26 AM 18.0 °F 12.7 °F 16.0 °F 92% 29.86 in 1.5 mi SSE 3.5 mph - 0.01 in Snow Light Snow
4:32 AM 18.0 °F 9.8 °F 16.0 °F 92% 29.86 in 3.0 mi SSE 5.8 mph - 0.01 in Snow Light Snow
4:43 AM 17.1 °F 8.7 °F 15.1 °F 92% 29.85 in 3.0 mi SE 5.8 mph - 0.01 in Snow Light Snow
4:53 AM 16.0 °F 8.8 °F 14.0 °F 92% 29.99 in 8.0 mi SE 4.6 mph - 0.01 in Snow Light Snow
5:53 AM 18.0 °F - 15.1 °F 88% 29.99 in 5.0 mi Calm Calm - 0.00 in Snow Light Snow
6:12 AM 18.0 °F - 16.0 °F 92% 29.85 in 2.0 mi Calm Calm - 0.00 in Snow Light Snow
6:25 AM 18.0 °F - 15.1 °F 88% 29.85 in 4.0 mi Calm Calm - 0.00 in Snow Light Snow
6:53 AM 18.0 °F - 15.1 °F 88% 30.00 in 9.0 mi Calm Calm - 0.00 in   Overcast
7:53 AM 18.0 °F - 16.0 °F 92% 30.00 in 5.0 mi Calm Calm - 0.00 in Snow Light Snow
8:53 AM 17.1 °F - 14.0 °F 88% 30.01 in 8.0 mi Calm Calm - 0.00 in   Overcast
9:53 AM 19.0 °F - 15.1 °F 85% 30.01 in 10.0 mi Calm Calm - 0.00 in   Overcast
10:53 AM 19.9 °F - 17.1 °F 89% 30.02 in 9.0 mi Calm Calm - 0.00 in   Overcast
11:14 AM 19.9 °F - 16.0 °F 85% 29.89 in 9.0 mi Calm Calm - N/A   Overcast
11:53 AM 19.9 °F - 17.1 °F 89% 30.01 in 4.0 mi Calm Calm - 0.00 in Snow Light Snow
12:00 PM 19.9 °F 14.9 °F 17.1 °F 89% 29.88 in 3.0 mi SSW 3.5 mph - 0.00 in Snow Light Snow
12:07 PM 19.9 °F - 17.1 °F 89% 29.88 in 2.0 mi Calm Calm - 0.00 in Snow Light Snow
12:17 PM 19.9 °F - 17.1 °F 89% 29.87 in 4.0 mi Calm Calm - 0.00 in Snow Light Snow
12:53 PM 21.0 °F - 18.0 °F 88% 30.00 in 6.0 mi Calm Calm - 0.00 in   Overcast
1:35 PM 23.0 °F - 18.0 °F 81% 29.85 in 2.5 mi Calm Calm - 0.00 in Snow Light Snow
1:53 PM 23.0 °F - 18.0 °F 81% 29.99 in 4.0 mi Calm Calm - 0.00 in   Haze
2:53 PM 21.9 °F 15.7 °F 18.0 °F 85% 29.98 in 5.0 mi WSW 4.6 mph - 0.00 in Snow Light Snow
3:17 PM 23.0 °F - 18.0 °F 81% 29.85 in 9.0 mi Calm Calm - 0.00 in   Overcast
3:53 PM 21.9 °F - 18.0 °F 85% 29.99 in 10.0 mi Calm Calm - 0.00 in   Overcast
4:53 PM 21.9 °F - 19.0 °F 89% 30.00 in 10.0 mi Calm Calm - N/A   Overcast
5:53 PM 24.1 °F 18.2 °F 18.0 °F 77% 30.01 in 10.0 mi WNW 4.6 mph - N/A   Overcast
6:53 PM 25.0 °F 18.1 °F 17.1 °F 72% 30.01 in 10.0 mi NNW 5.8 mph - N/A   Overcast
7:53 PM 24.1 °F 16.0 °F 17.1 °F 75% 30.03 in 10.0 mi North 6.9 mph - N/A   Overcast
8:53 PM 24.1 °F 12.5 °F 16.0 °F 71% 30.04 in 10.0 mi North 12.7 mph - N/A   Overcast
9:10 PM 24.1 °F 13.1 °F 16.0 °F 71% 29.92 in 10.0 mi NNW 11.5 mph - N/A   Overcast
9:53 PM 25.0 °F 13.6 °F 16.0 °F 69% 30.06 in 10.0 mi NNE 12.7 mph - N/A   Overcast
10:53 PM 23.0 °F 15.8 °F 15.1 °F 72% 30.07 in 10.0 mi NW 5.8 mph - N/A   Overcast
11:53 PM 21.9 °F 9.2 °F 15.1 °F 75% 30.09 in 10.0 mi NNW 13.8 mph - N/A   Overcast